Starlink 30564

operational
NORAD ID: 58043 Int'l Des: 2023-156 Owner: SPXS Country: US Constellation: starlink
LEOCIRCULAR

About Starlink 30564

Description loading...

Live Position

Loading 3D Globe...

Upcoming Passes

Altitude History

Altitude vs Time

uPlot chart will show altitude changes over time

Two-Line Element Set

1 58043U 23156R 25258.46129079 .00049147 00000-0 16583-2 0 9997
2 58043 53.1577 172.4098 0000468 100.9162 259.1892 15.30243638109481
Epoch: Sep 15, 2025 • Age: 22 hours

Current Status

Altitude 477.3 km
Velocity 7.63 km/s
Sub-Earth Point -8.54°S, 31.65°E
Launch Date Oct 9, 2023
Age 1.9 years
Type internet

Technical Details

Classification Payload
Mass 730.00 kg
Dry Mass 700.00 kg
Total Mass 730.00 kg
Length 0.30 m
Diameter 4.10 m
Span 29.00 m
Shape Box + pan
Manufacturer SPXS
Bus Type Starlink V2M
Phase Status In Orbit
Owner/State SPXS/US

Large Constellations

Loading constellations...